JE9BHE-13 Weather Reports


time (UTC)temp
C
wind
direction
speed
KPH
gust
KPH
rain 1hr
cm
rain 24hr
cm
rain mn
cm
humidity
%
barometer
mb
20260509151806 11 81 6.4 17.7 0.00 0.64 0.00 78 1022.6
20260509151508 11 84 4.8 17.7 0.00 0.64 0.00 78 1022.9
20260509150908 10 85 9.7 14.5 0.00 0.64 0.00 79 1022.6
20260509150607 10 85 6.4 12.9 0.00 0.64 0.00 80 1022.8
20260509150307 10 85 6.4 12.9 0.00 0.64 0.00 79 1022.8
20260509150010 10 89 6.4 12.9 0.00 0.64 0.00 79 1022.7
20260509145707 11 87 4.8 12.9 0.00 0.64 0.64 79 1022.8
20260509145107 11 78 6.4 12.9 0.00 0.64 0.64 79 1023.0
20260509144507 11 80 3.2 14.5 0.00 0.64 0.64 79 1022.7
20260509144207 11 89 3.2 14.5 0.00 0.64 0.64 80 1022.9
20260509143906 11 90 4.8 14.5 0.00 0.64 0.64 79 1022.8
20260509143608 11 90 6.4 14.5 0.00 0.64 0.64 79 1022.7
20260509143307 11 86 8.0 14.5 0.00 0.64 0.64 79 1022.7
20260509142407 11 88 4.8 11.3 0.00 0.64 0.64 80 1022.9
20260509141807 11 85 4.8 11.3 0.00 0.64 0.64 79 1022.8
20260509141506 11 87 6.4 11.3 0.00 0.64 0.64 80 1022.5
20260509141207 11 83 6.4 11.3 0.00 0.64 0.64 80 1022.6
20260509140907 11 77 6.4 12.9 0.00 0.64 0.64 80 1022.8
20260509140307 11 81 6.4 12.9 0.00 0.64 0.64 81 1022.5
20260509140007 11 86 6.4 12.9 0.00 0.64 0.64 81 1022.4
20260509135706 11 90 6.4 17.7 0.00 0.64 0.64 81 1022.7
20260509135407 11 93 6.4 17.7 0.00 0.64 0.64 81 1022.7
20260509135107 11 94 8.0 17.7 0.00 0.64 0.64 80 1022.6
20260509134807 11 87 4.8 9.7 0.00 0.64 0.64 81 1022.6
20260509134506 11 89 6.4 9.7 0.00 0.64 0.64 81 1022.6
20260509134207 11 84 4.8 9.7 0.00 0.64 0.64 81 1022.7
20260509133907 11 90 4.8 9.7 0.00 0.64 0.64 81 1022.7
20260509133608 11 85 3.2 11.3 0.00 0.64 0.64 81 1022.7
20260509133307 11 85 4.8 11.3 0.00 0.64 0.64 80 1022.5
20260509133007 11 82 6.4 11.3 0.00 0.64 0.64 80 1022.6
20260509132707 11 82 6.4 11.3 0.00 0.64 0.64 80 1022.7
20260509132408 11 79 6.4 12.9 0.00 0.64 0.64 81 1022.6
20260509132107 11 82 3.2 12.9 0.00 0.64 0.64 81 1022.7
20260509131806 11 84 6.4 12.9 0.00 0.64 0.64 81 1022.5
20260509131207 11 93 6.4 12.9 0.00 0.64 0.64 82 1022.6
20260509130907 11 88 6.4 12.9 0.00 0.64 0.64 81 1022.6
20260509130607 11 83 6.4 12.9 0.00 0.64 0.64 81 1022.4
20260509130307 11 75 3.2 12.9 0.00 0.64 0.64 82 1022.4
20260509130007 11 80 9.7 12.9 0.00 0.64 0.64 81 1022.6
20260509125707 11 73 6.4 12.9 0.00 0.64 0.64 81 1022.5
20260509125107 11 64 6.4 14.5 0.00 0.64 0.64 81 1022.6
20260509124807 12 69 3.2 14.5 0.00 0.64 0.64 81 1022.6
20260509123907 12 72 6.4 14.5 0.00 0.64 0.64 80 1022.2
20260509123606 12 75 6.4 12.9 0.00 0.64 0.64 79 1022.6
20260509123307 12 86 4.8 12.9 0.00 0.64 0.64 79 1022.4
20260509123007 12 87 4.8 12.9 0.00 0.64 0.64 79 1022.4
20260509122707 12 80 4.8 11.3 0.00 0.64 0.64 80 1022.2
20260509122406 12 69 6.4 9.7 0.00 0.64 0.64 80 1022.2
20260509121807 12 70 3.2 11.3 0.00 0.64 0.64 80 1022.2
20260509121207 12 73 3.2 11.3 0.00 0.64 0.64 80 1022.4
20260509120907 12 67 4.8 9.7 0.00 0.64 0.64 80 1022.5
20260509120306 12 63 4.8 9.7 0.00 0.64 0.64 79 1022.1
20260509115707 12 79 3.2 6.4 0.00 0.64 0.64 80 1022.3
20260509115407 12 85 3.2 6.4 0.00 0.64 0.64 79 1022.3
20260509115107 12 85 4.8 6.4 0.00 0.64 0.64 80 1022.1
20260509114806 12 80 3.2 9.7 0.00 0.64 0.64 81 1022.1
20260509114506 12 70 3.2 9.7 0.00 0.64 0.64 81 1022.1
20260509114207 12 72 3.2 9.7 0.00 0.64 0.64 81 1022.0
20260509113907 12 75 3.2 6.4 0.00 0.64 0.64 82 1022.1
20260509113606 12 83 3.2 6.4 0.00 0.64 0.64 81 1021.9
20260509113308 12 81 3.2 6.4 0.00 0.64 0.64 82 1021.8
20260509113007 12 82 3.2 6.4 0.00 0.64 0.64 82 1021.8
20260509112708 12 77 3.2 6.4 0.00 0.64 0.64 82 1021.8
20260509112407 12 75 3.2 6.4 0.00 0.64 0.64 82 1021.8
20260509112107 12 73 3.2 6.4 0.00 0.64 0.64 83 1021.7
20260509111807 12 79 3.2 3.2 0.00 0.64 0.64 83 1021.7
20260509111206 13 71 0.0 3.2 0.00 0.64 0.64 83 1021.4
20260509110906 13 71 1.6 3.2 0.00 0.64 0.64 83 1021.7
20260509110307 13 80 0.0 3.2 0.00 0.64 0.64 82 1021.4
20260509110007 13 90 3.2 3.2 0.00 0.64 0.64 81 1021.4
20260509105708 13 95 0.0 3.2 0.00 0.64 0.64 81 1021.5
20260509105407 13 94 1.6 3.2 0.00 0.64 0.64 79 1021.5
20260509105107 13 97 0.0 6.4 0.00 0.64 0.64 78 1021.4
20260509104507 13 128 3.2 6.4 0.00 0.64 0.64 78 1021.3
20260509104207 13 136 1.6 6.4 0.00 0.64 0.64 80 1021.4
20260509103907 13 132 3.2 6.4 0.00 0.64 0.64 79 1021.3
20260509103607 13 122 3.2 6.4 0.00 0.64 0.64 79 1021.0
20260509103307 13 121 1.6 6.4 0.00 0.64 0.64 79 1021.1
20260509103007 13 134 3.2 6.4 0.00 0.64 0.64 78 1021.1
20260509102706 13 140 3.2 6.4 0.00 0.64 0.64 79 1021.1
20260509102407 13 147 3.2 6.4 0.00 0.64 0.64 78 1021.3
20260509102107 13 138 4.8 6.4 0.00 0.64 0.64 78 1021.1
20260509101806 13 153 3.2 3.2 0.00 0.64 0.64 78 1020.8
20260509101506 13 158 0.0 3.2 0.00 0.64 0.64 78 1020.9
20260509101208 14 158 0.0 3.2 0.00 0.64 0.64 77 1020.9
20260509100907 14 158 0.0 3.2 0.00 0.64 0.64 75 1021.0
20260509100607 14 163 1.6 3.2 0.00 0.64 0.64 75 1020.8
20260509100306 14 164 1.6 3.2 0.00 0.64 0.64 74 1020.9
20260509100007 14 182 0.0 3.2 0.00 0.64 0.64 73 1020.7
20260509095407 15 230 0.0 9.7 0.00 0.64 0.64 72 1020.5
20260509095106 15 224 3.2 9.7 0.00 0.64 0.64 71 1020.6
20260509094806 15 223 0.0 9.7 0.00 0.64 0.64 69 1020.3
20260509094507 15 208 3.2 9.7 0.00 0.64 0.64 69 1020.5
20260509094207 15 216 0.0 6.4 0.00 0.64 0.64 68 1020.4
20260509093907 15 195 3.2 9.7 0.00 0.64 0.64 66 1020.4
20260509093606 15 187 3.2 9.7 0.00 0.64 0.64 67 1020.4
20260509093306 16 206 1.6 9.7 0.00 0.64 0.64 66 1020.2
20260509093007 16 214 3.2 9.7 0.00 0.64 0.64 65 1020.4
20260509092707 16 233 6.4 9.7 0.00 0.64 0.64 64 1020.5
20260509092406 16 238 4.8 6.4 0.00 0.64 0.64 65 1020.2
20260509092107 16 213 3.2 9.7 0.00 0.64 0.64 64 1020.4
20260509091807 16 203 3.2 9.7 0.00 0.64 0.64 64 1020.4
20260509091506 16 215 3.2 9.7 0.00 0.64 0.64 62 1020.3
20260509091207 16 213 6.4 9.7 0.00 0.64 0.64 62 1020.2
20260509090907 17 272 3.2 6.4 0.00 0.66 0.64 62 1020.3
20260509090607 17 174 3.2 6.4 0.00 0.66 0.64 61 1020.3
20260509090307 17 176 1.6 9.7 0.00 0.66 0.64 60 1020.3
20260509085707 17 212 3.2 11.3 0.00 0.66 0.64 60 1020.2
20260509085407 17 239 3.2 11.3 0.00 0.66 0.64 60 1020.2
20260509084807 17 255 3.2 11.3 0.00 0.66 0.64 61 1020.3
20260509084507 17 270 6.4 11.3 0.00 0.66 0.64 60 1020.1
20260509084208 17 208 3.2 12.9 0.00 0.66 0.64 60 1020.2
20260509083907 17 185 4.8 12.9 0.00 0.66 0.64 62 1020.3
20260509083607 17 178 4.8 12.9 0.00 0.66 0.64 58 1020.0
20260509083306 17 176 6.4 12.9 0.00 0.66 0.64 59 1019.9
20260509083007 17 172 4.8 14.5 0.00 0.66 0.64 61 1020.0
20260509082407 17 185 6.4 14.5 0.00 0.66 0.64 62 1019.8
20260509082107 17 223 8.0 14.5 0.00 0.66 0.64 60 1019.6
20260509081507 17 211 3.2 12.9 0.00 0.66 0.64 60 1019.8
20260509080906 17 192 8.0 12.9 0.00 0.66 0.64 59 1019.7
20260509080607 17 185 3.2 12.9 0.00 0.66 0.64 59 1019.9
20260509080307 17 185 4.8 12.9 0.00 0.66 0.64 60 1019.6
20260509080007 17 183 8.0 12.9 0.00 0.66 0.64 58 1019.6
20260509075707 18 164 4.8 12.9 0.00 0.66 0.64 59 1019.5
20260509075407 18 172 4.8 12.9 0.00 0.66 0.64 61 1019.5
20260509075107 18 176 6.4 12.9 0.00 0.66 0.64 61 1019.3
20260509074507 18 173 4.8 14.5 0.00 0.66 0.64 60 1019.6
20260509074207 18 188 6.4 14.5 0.00 0.66 0.64 61 1019.3
20260509073906 18 246 6.4 14.5 0.00 0.66 0.64 58 1019.3
20260509073306 18 299 6.4 12.9 0.00 0.66 0.64 60 1019.3
20260509073008 18 201 3.2 12.9 0.00 0.66 0.64 61 1019.0
20260509072406 17 173 3.2 17.7 0.00 0.66 0.64 63 1019.2
20260509072106 17 156 6.4 17.7 0.00 0.66 0.64 61 1019.2
20260509071506 18 160 6.4 14.5 0.00 0.66 0.64 63 1018.8
20260509071207 18 176 8.0 14.5 0.00 0.66 0.64 61 1019.0
20260509070907 18 246 6.4 17.7 0.00 0.66 0.64 55 1019.1
20260509070607 18 227 1.6 17.7 0.00 0.66 0.64 61 1019.0
20260509070306 18 202 4.8 17.7 0.00 0.66 0.64 59 1019.0
20260509070006 18 200 9.7 17.7 0.00 0.66 0.64 60 1018.9
20260509065708 18 188 6.4 17.7 0.00 0.66 0.64 61 1018.9
20260509065107 18 177 9.7 17.7 0.00 0.66 0.64 57 1018.9
20260509064507 18 175 8.0 17.7 0.00 0.66 0.64 63 1019.0
20260509064208 18 171 9.7 17.7 0.00 0.66 0.64 61 1019.0
20260509063906 18 186 4.8 17.7 0.00 0.66 0.64 61 1018.9
20260509063606 18 115 12.9 17.7 0.00 0.66 0.64 61 1019.1
20260509063307 19 125 8.0 17.7 0.00 0.66 0.64 61 1018.9
20260509063007 18 117 6.4 17.7 0.00 0.66 0.64 59 1019.1
20260509062707 18 162 8.0 17.7 0.00 0.66 0.64 62 1019.1
20260509062406 19 259 6.4 14.5 0.00 0.66 0.64 58 1019.1
20260509062107 19 283 3.2 14.5 0.00 0.66 0.64 57 1019.0
20260509061806 19 265 3.2 14.5 0.00 0.66 0.64 57 1018.9
20260509061508 19 279 3.2 11.3 0.00 0.66 0.64 58 1018.7
20260509061207 20 282 3.2 11.3 0.00 0.66 0.64 56 1019.0
20260509060906 19 304 0.0 6.4 0.00 0.66 0.64 58 1018.9
20260509055708 19 186 3.2 14.5 0.00 0.66 0.64 57 1019.1
20260509055406 18 167 1.6 14.5 0.00 0.66 0.64 58 1019.0
20260509054808 18 179 11.3 17.7 0.00 0.66 0.64 59 1019.0
20260509054207 19 221 3.2 14.5 0.00 0.66 0.64 54 1019.1
20260509053906 19 189 1.6 14.5 0.00 0.66 0.64 53 1019.0
20260509053607 19 197 6.4 14.5 0.00 0.66 0.64 54 1019.0
20260509053007 18 298 6.4 11.3 0.00 0.66 0.64 56 1019.0
20260509052107 19 138 3.2 12.9 0.00 0.66 0.64 59 1018.9
20260509051807 20 166 3.2 12.9 0.00 0.66 0.64 57 1019.0
20260509051506 19 184 6.4 12.9 0.00 0.66 0.64 59 1018.9
20260509051207 20 203 6.4 11.3 0.00 0.66 0.64 54 1019.1
20260509050906 20 270 3.2 9.7 0.00 0.66 0.64 54 1019.2
20260509050606 20 267 3.2 6.4 0.00 0.66 0.64 55 1019.1
20260509050307 20 166 3.2 6.4 0.00 0.66 0.64 46 1019.3
20260509050008 20 235 3.2 6.4 0.00 0.66 0.64 55 1019.1
20260509045706 20 261 3.2 6.4 0.00 0.66 0.64 54 1019.3
20260509045408 20 259 3.2 14.5 0.00 0.66 0.64 52 1019.4
20260509045106 20 238 1.6 14.5 0.00 0.66 0.64 52 1019.4
20260509044807 20 146 3.2 14.5 0.00 0.66 0.64 54 1019.3
20260509044506 19 218 3.2 6.4 0.00 0.66 0.64 56 1019.5
20260509044206 18 171 3.2 14.5 0.00 0.66 0.64 53 1019.7
20260509043906 19 178 4.8 14.5 0.00 0.66 0.64 51 1019.4
20260509043608 18 171 3.2 14.5 0.00 0.66 0.64 60 1019.6
20260509043308 18 163 4.8 14.5 0.00 0.66 0.64 55 1019.8
20260509043007 18 179 6.4 17.7 0.00 0.66 0.64 52 1019.6
20260509042706 19 206 6.4 17.7 0.00 0.66 0.64 53 1019.8
20260509042406 19 223 3.2 17.7 0.00 0.66 0.64 55 1020.0
20260509042107 19 220 4.8 20.9 0.00 0.66 0.64 57 1019.9
20260509041506 18 275 8.0 20.9 0.00 0.66 0.64 60 1019.8
20260509041207 19 204 1.6 14.5 0.00 0.66 0.64 60 1020.0
20260509040907 19 182 3.2 14.5 0.00 0.66 0.64 60 1019.6
20260509040607 18 158 3.2 14.5 0.00 0.66 0.64 62 1019.9
20260509040307 18 159 6.4 14.5 0.00 0.66 0.64 59 1020.0
20260509035706 18 171 9.7 14.5 0.00 0.66 0.64 61 1019.8
20260509035407 18 206 3.2 17.7 0.00 0.66 0.64 60 1020.1
20260509035106 18 202 4.8 17.7 0.00 0.66 0.64 52 1019.8
20260509034806 18 200 8.0 17.7 0.00 0.66 0.64 61 1019.9
20260509034507 18 174 8.0 17.7 0.00 0.66 0.64 59 1019.6
20260509034206 18 192 6.4 20.9 0.00 0.66 0.64 58 1019.9
20260509033907 19 237 4.8 20.9 0.00 0.66 0.64 58 1019.8
20260509033608 18 260 3.2 20.9 0.00 0.66 0.64 62 1019.7
20260509033306 18 289 12.9 17.7 0.00 0.66 0.64 65 1020.0
20260509033006 18 262 3.2 11.3 0.00 0.66 0.64 59 1019.8
20260509032706 18 215 3.2 11.3 0.00 0.66 0.64 58 1020.1
20260509032407 18 213 3.2 17.7 0.00 0.66 0.64 53 1019.8
20260509031508 17 259 3.2 17.7 0.00 0.66 0.64 64 1019.8
20260509031206 17 255 3.2 11.3 0.00 0.66 0.64 66 1020.1
20260509030906 18 293 4.8 11.3 0.00 0.66 0.64 60 1020.0
20260509030006 18 205 0.0 12.9 0.00 0.66 0.64 56 1020.2
20260509025707 17 174 3.2 12.9 0.00 0.66 0.64 64 1020.2
20260509025407 17 164 4.8 12.9 0.00 0.66 0.64 64 1020.3
20260509025108 17 162 6.4 12.9 0.00 0.66 0.64 64 1020.3
20260509024807 17 160 8.0 12.9 0.00 0.66 0.64 60 1020.3
20260509024507 17 187 3.2 6.4 0.00 0.66 0.64 61 1020.1
20260509024207 18 305 3.2 9.7 0.00 0.66 0.64 59 1020.3
20260509023906 18 289 3.2 9.7 0.00 0.66 0.64 60 1020.2
20260509023606 18 256 1.6 9.7 0.00 0.66 0.64 56 1020.2
20260509023307 18 200 3.2 9.7 0.00 0.66 0.64 63 1020.3
20260509023007 17 155 1.6 9.7 0.00 0.66 0.64 64 1020.2
20260509022706 17 139 0.0 9.7 0.00 0.66 0.64 62 1020.2
20260509022406 16 114 1.6 11.3 0.00 0.66 0.64 61 1020.2
20260509022107 16 86 1.6 12.9 0.00 0.66 0.64 65 1020.4
20260509021806 16 353 3.2 12.9 0.00 0.66 0.64 63 1020.2
20260509021506 17 317 1.6 12.9 0.00 0.66 0.64 64 1020.3
20260509021207 17 303 1.6 6.4 0.00 0.66 0.64 69 1020.2
20260509020906 17 248 3.2 6.4 0.00 0.66 0.64 66 1020.2
20260509020606 17 111 3.2 9.7 0.00 0.66 0.64 64 1020.1
20260509020307 16 101 3.2 11.3 0.00 0.69 0.64 67 1020.2
20260509015406 16 76 6.4 11.3 0.00 0.79 0.64 66 1020.2
20260509014807 16 74 3.2 11.3 0.00 0.79 0.64 66 1020.5
20260509014506 16 73 3.2 11.3 0.00 0.79 0.64 69 1020.4
20260509013906 15 88 4.8 9.7 0.00 0.79 0.64 65 1020.6
20260509013607 15 102 3.2 9.7 0.00 0.79 0.64 68 1020.5
20260509013308 15 120 4.8 9.7 0.00 0.79 0.64 66 1020.2
20260509013007 15 130 6.4 9.7 0.00 0.79 0.64 70 1020.2
20260509012706 15 146 6.4 11.3 0.00 0.79 0.64 72 1020.6
20260509012406 15 147 4.8 11.3 0.00 0.79 0.64 71 1020.5
20260509012107 15 151 6.4 12.9 0.00 0.79 0.64 74 1020.5
20260509011506 14 160 6.4 12.9 0.00 0.79 0.64 76 1020.6
20260509011207 13 157 8.0 12.9 0.00 0.79 0.64 78 1020.5
20260509010908 13 158 6.4 12.9 0.00 0.79 0.64 79 1020.6
20260509010606 14 142 6.4 12.9 0.00 0.79 0.64 78 1020.3
20260509010306 15 124 4.8 6.4 0.00 0.79 0.64 74 1020.5
20260509010007 15 7 3.2 6.4 0.00 0.79 0.64 71 1020.3
20260509005708 16 333 1.6 6.4 0.00 0.79 0.64 69 1020.3
20260509005107 16 2 1.6 6.4 0.00 0.79 0.64 68 1020.1
20260509004806 15 48 1.6 6.4 0.00 0.79 0.64 67 1020.2
20260509004506 15 73 1.6 6.4 0.00 0.79 0.64 70 1020.1
20260509004207 15 71 1.6 6.4 0.00 0.79 0.64 71 1020.3
20260509003607 15 83 3.2 6.4 0.00 0.79 0.64 71 1020.3
20260509003007 15 57 1.6 6.4 0.00 0.79 0.64 69 1020.3
20260509002706 15 83 0.0 6.4 0.00 0.79 0.64 69 1020.2
20260509001807 15 105 1.6 6.4 0.00 0.79 0.64 69 1020.3
20260509001507 15 90 3.2 6.4 0.00 0.79 0.64 70 1020.2
20260509001206 14 37 0.0 6.4 0.00 0.79 0.64 72 1020.1
20260509000906 13 82 1.6 6.4 0.00 0.79 0.64 73 1020.2
20260509000607 13 84 1.6 6.4 0.00 0.79 0.64 72 1020.2
20260509000006 13 82 3.2 6.4 0.00 0.79 0.64 74 1020.1
20260508235706 13 84 3.2 6.4 0.00 0.79 0.64 74 1019.9
20260508235407 13 90 3.2 9.7 0.00 0.79 0.64 75 1020.1
20260508235107 13 93 3.2 9.7 0.00 0.79 0.64 76 1020.1
20260508234807 13 94 3.2 9.7 0.00 0.79 0.64 76 1020.2
20260508234507 13 90 6.4 9.7 0.00 0.79 0.64 75 1020.0
20260508234206 13 84 3.2 6.4 0.00 0.79 0.64 74 1020.1
20260508233907 13 72 6.4 6.4 0.00 0.79 0.64 73 1019.9
20260508233607 13 74 4.8 11.3 0.00 0.79 0.64 74 1020.0
20260508233007 13 92 4.8 11.3 0.00 0.79 0.64 72 1019.9
20260508232706 13 88 3.2 9.7 0.00 0.79 0.64 74 1020.0
20260508232407 13 91 3.2 9.7 0.00 0.79 0.64 75 1020.1
20260508232106 13 74 4.8 6.4 0.00 0.79 0.64 74 1020.0
20260508231807 13 70 4.8 9.7 0.00 0.79 0.64 76 1020.1
20260508231507 13 69 3.2 9.7 0.00 0.79 0.64 76 1020.0
20260508231207 13 73 3.2 9.7 0.00 0.79 0.64 77 1019.9
20260508230606 12 88 3.2 6.4 0.00 0.79 0.64 80 1020.1
20260508230007 13 85 1.6 6.4 0.00 0.79 0.64 79 1019.9
20260508225706 12 77 3.2 6.4 0.00 0.79 0.64 80 1020.1
20260508225407 12 76 3.2 6.4 0.00 0.79 0.64 83 1020.0
20260508225106 12 70 1.6 6.4 0.00 0.79 0.64 82 1020.0
20260508224507 12 67 3.2 6.4 0.00 0.79 0.64 83 1019.9
20260508224207 12 64 3.2 6.4 0.00 0.79 0.64 83 1019.9
20260508223906 12 66 1.6 6.4 0.00 0.79 0.64 85 1020.1
20260508223606 11 68 1.6 9.7 0.00 0.79 0.64 86 1020.0
20260508223306 11 79 1.6 9.7 0.00 0.79 0.64 86 1020.0
20260508223007 11 83 3.2 9.7 0.00 0.79 0.64 87 1019.9
20260508222707 11 82 3.2 9.7 0.00 0.79 0.64 88 1020.0
20260508222106 11 84 6.4 6.4 0.00 0.79 0.64 90 1020.1
20260508221807 11 87 3.2 6.4 0.00 0.79 0.64 91 1020.0
20260508221506 11 88 3.2 3.2 0.00 0.79 0.64 91 1020.1
20260508221207 11 84 3.2 3.2 0.00 0.79 0.64 91 1020.0
20260508220907 11 84 0.0 3.2 0.00 0.79 0.64 92 1020.0
20260508220606 11 86 1.6 3.2 0.00 0.79 0.64 92 1020.0
20260508220306 11 86 3.2 3.2 0.00 0.79 0.64 92 1019.7
20260508220008 11 87 3.2 3.2 0.00 0.79 0.64 92 1019.8
20260508215706 11 87 3.2 3.2 0.00 0.79 0.64 92 1019.8
20260508215406 11 88 3.2 3.2 0.00 0.79 0.64 91 1019.7
20260508215106 11 86 0.0 3.2 0.00 0.79 0.64 91 1019.9
20260508214206 11 94 0.0 3.2 0.00 0.79 0.64 89 1019.9
20260508213606 10 112 0.0 3.2 0.00 0.79 0.64 88 1019.8
20260508213306 11 118 1.6 3.2 0.03 0.79 0.64 89 1019.8
20260508213006 11 118 1.6 3.2 0.03 0.79 0.64 89 1019.9
20260508212707 11 116 1.6 3.2 0.03 0.79 0.64 89 1019.9
20260508212408 10 97 3.2 3.2 0.03 0.79 0.64 89 1020.0
20260508212106 10 98 0.0 3.2 0.03 0.79 0.64 89 1019.7
20260508211806 10 107 1.6 6.4 0.05 0.79 0.64 89 1019.7
20260508211507 11 111 1.6 6.4 0.05 0.79 0.64 90 1019.7
20260508211206 11 118 3.2 6.4 0.10 0.79 0.64 90 1019.7
20260508210906 11 119 3.2 6.4 0.10 0.79 0.64 89 1019.4
20260508210606 10 122 3.2 6.4 0.18 0.79 0.64 90 1019.5
20260508210007 10 143 3.2 11.3 0.23 0.79 0.64 90 1019.4
20260508205706 10 142 4.8 17.7 0.23 0.79 0.64 90 1019.2
20260508205406 10 148 4.8 17.7 0.23 0.79 0.64 91 1019.5
20260508205107 10 148 8.0 17.7 0.23 0.79 0.64 91 1019.3
20260508204807 10 149 4.8 14.5 0.23 0.79 0.64 92 1019.0
20260508204507 10 146 8.0 14.5 0.23 0.79 0.64 92 1019.0
20260508204206 10 152 8.0 14.5 0.23 0.79 0.64 93 1018.6
20260508203907 10 156 8.0 17.7 0.23 0.79 0.64 93 1018.7
20260508203306 10 155 11.3 17.7 0.23 0.76 0.61 94 1018.6
20260508203006 10 147 11.3 17.7 0.23 0.76 0.61 95 1018.5
20260508202707 10 144 6.4 14.5 0.28 0.76 0.61 96 1018.2
20260508202407 10 138 6.4 14.5 0.28 0.76 0.61 96 1018.1
20260508201806 10 151 6.4 12.9 0.23 0.71 0.56 97 1018.1
20260508201506 10 161 6.4 12.9 0.23 0.71 0.56 95 1017.9
20260508201207 10 161 6.4 14.5 0.20 0.69 0.53 95 1018.1
20260508200906 10 154 6.4 17.7 0.23 0.69 0.53 95 1017.9
20260508200606 10 153 6.4 20.9 0.15 0.61 0.46 94 1017.8
20260508200306 10 151 9.7 20.9 0.13 0.56 0.43 92 1017.6
20260508195706 10 143 11.3 20.9 0.13 0.53 0.38 91 1017.2
20260508195106 10 123 11.3 17.7 0.15 0.53 0.38 90 1017.0
20260508194806 10 114 9.7 17.7 0.15 0.53 0.38 90 1017.2
20260508193907 10 118 11.3 17.7 0.15 0.53 0.38 90 1016.8
20260508193606 10 127 9.7 17.7 0.18 0.53 0.38 90 1017.0
20260508193306 10 130 9.7 14.5 0.15 0.51 0.36 90 1016.9
20260508193007 10 128 6.4 14.5 0.13 0.48 0.33 89 1016.7
20260508192706 10 126 3.2 17.7 0.13 0.48 0.33 90 1016.4
20260508192407 10 116 9.7 17.7 0.13 0.48 0.33 90 1016.4
20260508192106 10 113 6.4 17.7 0.13 0.48 0.33 90 1016.4
20260508191806 10 111 11.3 17.7 0.13 0.48 0.33 90 1016.5
20260508191507 10 111 4.8 14.5 0.13 0.48 0.33 89 1016.3
20260508190907 10 123 6.4 14.5 0.10 0.46 0.30 89 1016.1
20260508190606 10 122 6.4 14.5 0.13 0.46 0.30 88 1016.0
20260508190306 10 119 8.0 14.5 0.13 0.46 0.30 89 1016.2
20260508190006 10 120 4.8 11.3 0.15 0.46 0.30 87 1016.2
20260508185706 10 121 6.4 17.7 0.18 0.43 0.28 86 1016.0
20260508185408 10 123 6.4 17.7 0.18 0.43 0.28 87 1015.8
20260508184506 11 115 3.2 14.5 0.18 0.38 0.23 86 1015.8
20260508184207 11 117 4.8 14.5 0.20 0.38 0.23 84 1015.6
20260508183907 11 119 6.4 14.5 0.23 0.38 0.23 84 1015.1
20260508183607 11 113 3.2 14.5 0.20 0.36 0.20 86 1015.4
20260508183306 10 110 8.0 11.3 0.20 0.36 0.20 83 1015.2
20260508183006 10 108 4.8 11.3 0.20 0.36 0.20 86 1015.4
20260508182706 10 101 4.8 9.7 0.20 0.36 0.20 87 1015.2
20260508182407 10 107 4.8 9.7 0.20 0.36 0.20 87 1015.4
20260508182108 10 113 4.8 9.7 0.20 0.36 0.20 87 1015.2
20260508181807 10 110 1.6 6.4 0.20 0.36 0.20 87 1015.0
20260508181506 10 107 3.2 6.4 0.20 0.36 0.20 87 1015.2
20260508181207 10 116 3.2 6.4 0.20 0.36 0.20 87 1014.9
20260508180606 11 127 4.8 6.4 0.18 0.33 0.18 86 1015.2
20260508180306 11 131 3.2 6.4 0.18 0.33 0.18 85 1015.2
20260508180006 11 138 3.2 6.4 0.13 0.28 0.13 85 1015.1
20260508175406 11 116 1.6 6.4 0.10 0.23 0.10 83 1014.9
20260508175107 11 116 3.2 9.7 0.10 0.23 0.10 80 1015.1
20260508174807 11 113 3.2 14.5 0.10 0.23 0.10 82 1014.9
20260508173907 12 118 6.4 25.7 0.00 0.15 0.00 73 1014.4
20260508173605 12 123 9.7 25.7 0.00 0.15 0.00 71 1014.2
20260508173306 13 116 8.0 25.7 0.00 0.15 0.00 70 1014.2
20260508173006 13 115 12.9 17.7 0.00 0.15 0.00 64 1014.1
20260508172706 13 115 6.4 14.5 0.00 0.15 0.00 63 1013.7
20260508172407 13 115 6.4 17.7 0.00 0.15 0.00 63 1014.2
20260508171807 13 131 6.4 20.9 0.00 0.15 0.00 61 1013.9
20260508171507 13 131 6.4 20.9 0.00 0.15 0.00 62 1014.0
20260508171207 13 120 9.7 20.9 0.00 0.15 0.00 62 1014.0
20260508170906 12 121 11.3 20.9 0.00 0.15 0.00 63 1014.2
20260508170606 13 134 6.4 20.9 0.00 0.15 0.00 64 1013.9
20260508170306 13 141 6.4 20.9 0.00 0.15 0.00 61 1013.9
20260508170007 13 146 12.9 17.7 0.00 0.15 0.00 61 1013.8
20260508165705 13 123 6.4 11.3 0.00 0.15 0.00 62 1013.7
20260508165106 13 101 4.8 12.9 0.00 0.15 0.00 60 1013.6
20260508164806 13 104 4.8 12.9 0.00 0.15 0.00 59 1013.6
20260508164206 13 108 6.4 12.9 0.00 0.15 0.00 61 1013.4
20260508163906 13 114 8.0 12.9 0.00 0.15 0.00 59 1013.7
20260508163606 13 113 4.8 11.3 0.00 0.15 0.00 60 1013.5
20260508163306 13 117 3.2 9.7 0.00 0.15 0.00 60 1013.5
20260508162706 13 118 6.4 11.3 0.00 0.15 0.00 60 1013.5
20260508162406 13 109 3.2 14.5 0.00 0.15 0.00 59 1013.2
20260508162107 13 116 4.8 14.5 0.00 0.15 0.00 58 1013.3
20260508161806 13 113 4.8 14.5 0.00 0.15 0.00 59 1013.4
20260508161507 13 109 9.7 14.5 0.00 0.15 0.00 57 1013.7
20260508161207 13 100 8.0 14.5 0.00 0.15 0.00 59 1013.7
20260508160906 12 99 6.4 11.3 0.00 0.15 0.00 64 1013.9
20260508160606 12 97 6.4 9.7 0.00 0.15 0.00 66 1013.9
20260508160306 12 103 4.8 11.3 0.00 0.15 0.00 64 1013.7
20260508160008 12 94 3.2 11.3 0.00 0.15 0.00 66 1014.0
20260508155706 12 103 4.8 12.9 0.00 0.15 0.00 65 1014.0
20260508155406 12 109 6.4 12.9 0.00 0.15 0.00 64 1013.8
20260508155106 12 110 6.4 12.9 0.00 0.15 0.00 62 1013.9
20260508154506 13 106 6.4 17.7 0.00 0.15 0.00 59 1013.8
20260508154206 12 108 4.8 17.7 0.00 0.15 0.00 60 1013.5
20260508153906 12 99 8.0 17.7 0.00 0.15 0.00 62 1013.6
20260508153606 12 96 3.2 17.7 0.00 0.15 0.00 64 1013.7
20260508153306 12 89 6.4 17.7 0.00 0.15 0.00 66 1013.8
20260508153006 12 83 11.3 17.7 0.00 0.15 0.00 64 1013.6
20260508152706 12 79 8.0 17.7 0.00 0.15 0.00 62 1013.6
20260508152406 12 89 9.7 17.7 0.00 0.15 0.00 63 1013.9
20260508152106 11 84 9.7 14.5 0.00 0.15 0.00 65 1013.7